�������l�o���
Date,Time,MP-1(��Sv/h),MP-2(��Sv/h),MP-3(��Sv/h),MP-4(��Sv/h),MP-5(��Sv/h),MP-6(��Sv/h),MP-7(��Sv/h),MP-8(��Sv/h),����,����(m/s),���J
2020/05/20,00:00,0.660,0.923,0.612,1.131,0.773,0.386,0.662,0.630,�k�k��,13.1,�L
2020/05/20,00:10,0.660,0.925,0.612,1.131,0.773,0.386,0.662,0.631,�k,12.5,�L
2020/05/20,00:20,0.659,0.923,0.613,1.133,0.771,0.386,0.663,0.632,�k�k��,13.0,�L
2020/05/20,00:30,0.660,0.925,0.612,1.133,0.775,0.385,0.661,0.632,�k�k��,11.3,�L
2020/05/20,00:40,0.660,0.924,0.612,1.133,0.773,0.385,0.661,0.632,�k�k��,10.4,�L
2020/05/20,00:50,0.661,0.924,0.613,1.130,0.772,0.385,0.662,0.632,�k,10.7,�L
2020/05/20,01:00,0.660,0.920,0.611,1.130,0.773,0.385,0.662,0.632,�k,11.4,�L
2020/05/20,01:10,0.661,0.925,0.610,1.131,0.775,0.385,0.663,0.633,�k�k��,12.7,�L
2020/05/20,01:20,0.662,0.924,0.610,1.131,0.773,0.384,0.660,0.632,�k�k��,11.0,�L
2020/05/20,01:30,0.657,0.923,0.613,1.135,0.774,0.384,0.662,0.632,�k�k��,12.4,�L
2020/05/20,01:40,0.660,0.926,0.612,1.134,0.774,0.384,0.662,0.632,�k�k��,13.5,�L
2020/05/20,01:50,0.662,0.925,0.613,1.135,0.776,0.385,0.662,0.633,�k�k��,13.8,�L
2020/05/20,02:00,0.662,0.927,0.614,1.135,0.779,0.384,0.665,0.632,�k�k��,11.7,�L
2020/05/20,02:10,0.662,0.928,0.615,1.137,0.780,0.385,0.664,0.633,�k�k��,10.8,�L
2020/05/20,02:20,0.663,0.927,0.613,1.135,0.779,0.386,0.663,0.632,�k,11.8,�L
2020/05/20,02:30,0.662,0.928,0.614,1.137,0.778,0.384,0.662,0.633,�k,12.7,�L
2020/05/20,02:40,0.661,0.925,0.614,1.136,0.778,0.383,0.663,0.631,�k�k��,11.9,�L
2020/05/20,02:50,0.660,0.923,0.613,1.134,0.776,0.384,0.663,0.632,�k�k��,12.7,�L
2020/05/20,03:00,0.656,0.924,0.612,1.134,0.778,0.384,0.662,0.633,�k,12.8,�L
2020/05/20,03:10,0.659,0.924,0.613,1.134,0.776,0.383,0.662,0.632,�k�k��,10.5,�L
2020/05/20,03:20,0.657,0.924,0.613,1.133,0.777,0.383,0.663,0.633,�k,11.8,�L
2020/05/20,03:30,0.657,0.923,0.615,1.137,0.778,0.381,0.660,0.631,�k,12.1,�L
2020/05/20,03:40,0.659,0.924,0.613,1.135,0.779,0.383,0.663,0.632,�k,13.8,�L
2020/05/20,03:50,0.657,0.923,0.614,1.135,0.777,0.384,0.663,0.633,�k,11.0,�L
2020/05/20,04:00,0.660,0.924,0.613,1.134,0.775,0.383,0.661,0.635,�k,8.5,�L
2020/05/20,04:10,0.656,0.922,0.613,1.131,0.777,0.383,0.661,0.633,�k,8.2,�L
2020/05/20,04:20,0.656,0.921,0.612,1.134,0.775,0.382,0.659,0.631,�k,9.3,�L
2020/05/20,04:30,0.659,0.924,0.614,1.132,0.777,0.381,0.661,0.632,�k,10.6,�L
2020/05/20,04:40,0.659,0.923,0.615,1.132,0.776,0.383,0.660,0.630,�k,12.0,�L
2020/05/20,04:50,0.661,0.924,0.613,1.132,0.779,0.382,0.664,0.632,�k,10.7,�L
2020/05/20,05:00,0.657,0.923,0.611,1.137,0.778,0.383,0.662,0.633,�k,8.3,�L
2020/05/20,05:10,0.657,0.925,0.611,1.136,0.778,0.381,0.660,0.630,�k�k��,7.3,�L
2020/05/20,05:20,0.656,0.924,0.611,1.130,0.775,0.382,0.661,0.632,�k,8.4,�L
2020/05/20,05:30,0.653,0.922,0.612,1.130,0.776,0.383,0.661,0.630,�k,8.0,�L
2020/05/20,05:40,0.655,0.922,0.612,1.133,0.779,0.384,0.661,0.633,�k�k��,8.9,�L
2020/05/20,05:50,0.656,0.922,0.612,1.136,0.779,0.384,0.662,0.630,�k�k��,8.1,�L
2020/05/20,06:00,0.654,0.923,0.611,1.134,0.777,0.382,0.661,0.632,�k�k��,10.0,�L
2020/05/20,06:10,0.656,0.920,0.612,1.134,0.777,0.382,0.660,0.632,�k�k��,9.7,�L
2020/05/20,06:20,0.655,0.922,0.613,1.131,0.778,0.382,0.662,0.630,�k�k��,8.0,�L
2020/05/20,06:30,0.653,0.925,0.613,1.136,0.777,0.382,0.662,0.634,�k�k��,8.4,�L
2020/05/20,06:40,0.656,0.924,0.614,1.137,0.779,0.382,0.662,0.633,�k�k��,9.4,�L
2020/05/20,06:50,0.655,0.927,0.613,1.137,0.781,0.383,0.662,0.630,�k�k��,9.1,�L
2020/05/20,07:00,0.656,0.924,0.613,1.140,0.780,0.384,0.661,0.633,�k�k��,10.1,�L
2020/05/20,07:10,0.656,0.927,0.612,1.139,0.779,0.382,0.663,0.631,�k�k��,10.8,�L
2020/05/20,07:20,0.657,0.927,0.613,1.136,0.779,0.383,0.662,0.633,�k�k��,11.1,�L
2020/05/20,07:30,0.657,0.926,0.613,1.135,0.780,0.383,0.663,0.633,�k�k��,8.6,�L
2020/05/20,07:40,0.658,0.928,0.614,1.138,0.783,0.383,0.664,0.634,�k�k��,10.4,�L
2020/05/20,07:50,0.656,0.929,0.614,1.141,0.781,0.383,0.663,0.634,�k�k��,9.5,�L
2020/05/20,08:00,0.657,0.930,0.616,1.140,0.783,0.383,0.663,0.633,�k�k��,9.4,�L
2020/05/20,08:10,0.658,0.929,0.616,1.141,0.783,0.385,0.663,0.634,�k�k��,9.8,�L
2020/05/20,08:20,0.659,0.929,0.615,1.142,0.784,0.384,0.662,0.633,�k�k��,9.7,�L
2020/05/20,08:30,0.657,0.931,0.614,1.143,0.784,0.383,0.663,0.632,�k�k��,9.4,�L
2020/05/20,08:40,0.657,0.924,0.613,1.142,0.782,0.383,0.662,0.632,�k�k��,8.8,�L
2020/05/20,08:50,0.658,0.925,0.616,1.139,0.783,0.383,0.663,0.634,�k�k��,7.8,�L
2020/05/20,09:00,0.656,0.925,0.617,1.141,0.784,0.383,0.662,0.633,�k�k��,8.9,�L
2020/05/20,09:10,0.657,0.925,0.615,1.139,0.785,0.384,0.663,0.633,�k�k��,9.6,�L
2020/05/20,09:20,0.656,0.924,0.616,1.142,0.784,0.382,0.664,0.634,�k�k��,8.7,�L
2020/05/20,09:30,0.658,0.925,0.616,1.144,0.783,0.384,0.665,0.634,�k�k��,11.1,�L
2020/05/20,09:40,0.659,0.926,0.617,1.144,0.785,0.385,0.664,0.633,�k�k��,10.2,�L
2020/05/20,09:50,0.660,0.926,0.617,1.148,0.787,0.384,0.664,0.634,�k�k��,10.3,�L
2020/05/20,10:00,0.662,0.929,0.617,1.147,0.789,0.386,0.664,0.635,�k�k��,9.3,�L
2020/05/20,10:10,0.659,0.925,0.616,1.147,0.786,0.383,0.664,0.634,�k�k��,8.9,�L
2020/05/20,10:20,0.662,0.928,0.617,1.148,0.788,0.384,0.663,0.634,�k,9.1,�L
2020/05/20,10:30,0.659,0.929,0.619,1.150,0.788,0.383,0.663,0.635,�k�k��,9.9,�L
2020/05/20,10:40,0.661,0.930,0.618,1.150,0.789,0.383,0.664,0.634,�k,9.7,�L
2020/05/20,10:50,0.663,0.929,0.618,1.149,0.789,0.384,0.664,0.633,�k,10.0,�L
2020/05/20,11:00,0.661,0.929,0.617,1.148,0.785,0.384,0.662,0.633,�k,10.0,�L
2020/05/20,11:10,0.658,0.929,0.616,1.146,0.786,0.385,0.663,0.633,�k�k��,10.0,�L
2020/05/20,11:20,0.658,0.925,0.615,1.144,0.786,0.383,0.661,0.632,�k,9.4,�L
2020/05/20,11:30,0.659,0.923,0.616,1.142,0.787,0.383,0.663,0.633,�k,8.1,�L
2020/05/20,11:40,0.658,0.926,0.618,1.143,0.786,0.383,0.663,0.634,�k,9.2,�L
2020/05/20,11:50,0.660,0.930,0.618,1.147,0.788,0.383,0.664,0.634,�k,9.0,�L
2020/05/20,12:00,0.660,0.929,0.617,1.148,0.787,0.384,0.662,0.633,�k�k��,9.4,�L
2020/05/20,12:10,0.660,0.931,0.620,1.148,0.787,0.384,0.663,0.635,�k�k��,9.5,�L
2020/05/20,12:20,0.660,0.932,0.619,1.147,0.788,0.385,0.662,0.633,�k�k��,10.7,�L
2020/05/20,12:30,0.661,0.933,0.618,1.148,0.790,0.384,0.664,0.634,�k,8.8,�L
2020/05/20,12:40,0.660,0.933,0.620,1.149,0.791,0.384,0.665,0.636,�k,9.6,�L
2020/05/20,12:50,0.662,0.933,0.621,1.150,0.791,0.385,0.666,0.635,�k,9.5,�L
2020/05/20,13:00,0.663,0.932,0.621,1.152,0.792,0.385,0.665,0.636,�k,9.9,�L
2020/05/20,13:10,0.663,0.933,0.617,1.152,0.792,0.386,0.665,0.636,�k,10.5,�L
2020/05/20,13:20,0.664,0.935,0.620,1.154,0.793,0.384,0.666,0.636,�k,10.2,�L
2020/05/20,13:30,0.663,0.932,0.620,1.153,0.793,0.385,0.666,0.635,�k,9.0,�L
2020/05/20,13:40,0.664,0.935,0.622,1.155,0.795,0.385,0.666,0.636,�k,10.4,�L
2020/05/20,13:50,0.664,0.934,0.622,1.156,0.794,0.385,0.666,0.636,�k,9.4,�L
2020/05/20,14:00,0.663,0.934,0.622,1.156,0.794,0.384,0.666,0.636,�k,10.5,�L
2020/05/20,14:10,0.666,0.935,0.622,1.156,0.795,0.384,0.666,0.635,�k,10.2,�L
2020/05/20,14:20,0.666,0.936,0.622,1.156,0.797,0.385,0.666,0.637,�k,10.0,�L
2020/05/20,14:30,0.664,0.931,0.623,1.156,0.795,0.384,0.667,0.635,�k,9.0,�L
2020/05/20,14:40,0.664,0.936,0.620,1.155,0.795,0.385,0.667,0.637,�k,9.1,�L
2020/05/20,14:50,0.664,0.936,0.619,1.154,0.797,0.385,0.665,0.636,�k�k��,8.8,�L
2020/05/20,15:00,0.664,0.934,0.621,1.160,0.796,0.384,0.667,0.637,�k,8.4,�L
2020/05/20,15:10,0.661,0.936,0.621,1.156,0.797,0.383,0.666,0.635,�k,7.9,�L
2020/05/20,15:20,0.663,0.935,0.622,1.154,0.796,0.384,0.665,0.636,�k,9.2,�L
2020/05/20,15:30,0.664,0.936,0.619,1.153,0.795,0.384,0.666,0.636,�k,9.7,�L
2020/05/20,15:40,0.662,0.934,0.620,1.153,0.793,0.383,0.664,0.636,�k�k��,10.4,�L
2020/05/20,15:50,0.660,0.935,0.621,1.152,0.794,0.385,0.665,0.635,�k,7.4,�L
2020/05/20,16:00,0.661,0.935,0.619,1.150,0.793,0.385,0.665,0.634,�k,9.1,�L
2020/05/20,16:10,0.660,0.935,0.620,1.149,0.794,0.384,0.666,0.635,�k,8.6,�L
2020/05/20,16:20,0.661,0.935,0.618,1.151,0.792,0.386,0.666,0.636,�k,7.2,�L
2020/05/20,16:30,0.660,0.934,0.620,1.148,0.794,0.385,0.667,0.634,�k,8.5,�L
2020/05/20,16:40,0.661,0.931,0.619,1.146,0.793,0.384,0.666,0.636,�k�k��,9.6,�L
2020/05/20,16:50,0.658,0.931,0.620,1.144,0.790,0.385,0.666,0.635,�k,8.7,�L
2020/05/20,17:00,0.659,0.932,0.618,1.144,0.790,0.384,0.665,0.635,�k,8.4,�L
2020/05/20,17:10,0.658,0.931,0.619,1.144,0.792,0.384,0.664,0.633,�k,8.3,�L
2020/05/20,17:20,0.657,0.930,0.620,1.144,0.790,0.385,0.664,0.635,�k,9.3,�L
2020/05/20,17:30,0.658,0.929,0.618,1.143,0.793,0.383,0.664,0.632,�k,7.2,�L
2020/05/20,17:40,0.658,0.929,0.620,1.143,0.790,0.385,0.663,0.633,�k,7.5,�L
2020/05/20,17:50,0.656,0.929,0.618,1.140,0.790,0.383,0.663,0.633,�k,8.0,�L
2020/05/20,18:00,0.657,0.931,0.619,1.142,0.791,0.384,0.664,0.633,�k,6.8,�L
2020/05/20,18:10,0.659,0.930,0.618,1.144,0.792,0.384,0.663,0.633,�k,7.6,�L
2020/05/20,18:20,0.657,0.930,0.617,1.145,0.790,0.385,0.665,0.634,�k,7.2,�L
2020/05/20,18:30,0.658,0.931,0.619,1.143,0.789,0.384,0.665,0.634,�k,7.2,�L
2020/05/20,18:40,0.659,0.931,0.619,1.145,0.793,0.384,0.665,0.633,�k�k��,7.9,�L
2020/05/20,18:50,0.658,0.932,0.617,1.145,0.790,0.383,0.663,0.632,�k,7.0,�L
2020/05/20,19:00,0.658,0.931,0.618,1.144,0.792,0.385,0.662,0.633,�k�k��,7.7,�L
2020/05/20,19:10,0.657,0.931,0.618,1.144,0.791,0.384,0.664,0.633,�k�k��,6.7,�L
2020/05/20,19:20,0.657,0.931,0.619,1.144,0.791,0.384,0.663,0.633,�k�k��,7.1,�L
2020/05/20,19:30,0.657,0.933,0.619,1.147,0.793,0.383,0.664,0.634,�k�k��,7.2,�L
2020/05/20,19:40,0.659,0.935,0.619,1.145,0.794,0.384,0.665,0.634,�k�k��,8.0,�L
2020/05/20,19:50,0.659,0.935,0.620,1.145,0.793,0.386,0.664,0.633,�k�k��,6.9,�L
2020/05/20,20:00,0.659,0.934,0.618,1.147,0.792,0.384,0.665,0.633,�k�k��,7.8,�L
2020/05/20,20:10,0.660,0.936,0.618,1.148,0.795,0.384,0.664,0.634,�k�k��,6.8,�L
2020/05/20,20:20,0.658,0.934,0.621,1.150,0.794,0.384,0.664,0.634,�k�k��,7.4,�L
2020/05/20,20:30,0.658,0.932,0.619,1.146,0.793,0.384,0.664,0.632,�k�k��,7.4,�L
2020/05/20,20:40,0.658,0.935,0.618,1.147,0.792,0.384,0.665,0.634,�k�k��,6.1,�L
2020/05/20,20:50,0.659,0.934,0.617,1.148,0.792,0.383,0.665,0.634,�k�k��,6.3,�L
2020/05/20,21:00,0.658,0.935,0.618,1.145,0.794,0.384,0.665,0.634,�k�k��,6.5,�L
2020/05/20,21:10,0.658,0.933,0.619,1.143,0.790,0.381,0.666,0.632,�k�k��,5.8,�L
2020/05/20,21:20,0.658,0.931,0.618,1.143,0.791,0.383,0.663,0.633,�k�k��,5.5,�L
2020/05/20,21:30,0.657,0.935,0.617,1.144,0.793,0.382,0.664,0.632,�k�k��,6.0,�L
2020/05/20,21:40,0.657,0.935,0.617,1.141,0.792,0.385,0.663,0.631,�k,5.8,�L
2020/05/20,21:50,0.660,0.933,0.618,1.142,0.792,0.382,0.662,0.634,�k,5.5,�L
2020/05/20,22:00,0.658,0.932,0.618,1.141,0.791,0.384,0.662,0.633,�k�k��,6.3,�L
2020/05/20,22:10,0.657,0.933,0.617,1.143,0.793,0.384,0.663,0.631,�k�k��,5.7,�L
2020/05/20,22:20,0.656,0.933,0.617,1.142,0.792,0.384,0.663,0.633,�k�k��,5.9,�L
2020/05/20,22:30,0.660,0.935,0.619,1.142,0.792,0.384,0.665,0.632,�k�k��,6.7,�L
2020/05/20,22:40,0.658,0.937,0.619,1.143,0.793,0.384,0.664,0.631,�k,6.4,�L
2020/05/20,22:50,0.658,0.933,0.619,1.143,0.792,0.383,0.663,0.632,�k�k��,6.4,�L
2020/05/20,23:00,0.658,0.935,0.618,1.145,0.790,0.383,0.664,0.632,�k�k��,6.6,�L
2020/05/20,23:10,0.659,0.933,0.616,1.144,0.792,0.386,0.665,0.632,�k,5.5,�L
2020/05/20,23:20,0.658,0.933,0.619,1.145,0.793,0.384,0.664,0.633,�k�k��,4.5,�L
2020/05/20,23:30,0.658,0.934,0.620,1.144,0.793,0.383,0.664,0.635,�k,5.8,�L
2020/05/20,23:40,0.660,0.936,0.620,1.145,0.795,0.384,0.664,0.634,�k,7.6,�L
2020/05/20,23:50,0.658,0.934,0.620,1.148,0.794,0.383,0.666,0.634,�k�k��,6.3,�L
